Kimball, NE

6:52 PM MDT on October 17, 2017 (GMT -0600)
Kimball Municipal-Arraj

Weather History for KIBM - October, 2012

Change the Weather History Date:

Thursday, October 4, 2012

  Actual Average (KSNY) Record (KSNY)
Temperature  
Mean Temperature 36 °F -  
Max Temperature 46 °F 68 °F 89 °F (1987)
Min Temperature 26 °F 35 °F 22 °F (1953)
Degree Days  
Heating Degree Days 29    
Moisture  
Dew Point 23 °F    
Average Humidity 62    
Maximum Humidity 91    
Minimum Humidity 37    
Precipitation  
Precipitation 0.00 in - - ()
Sea Level Pressure  
Sea Level Pressure 30.30 in    
Wind  
Wind Speed 10 mph (North)    
Max Wind Speed 21 mph    
Max Gust Speed 29 mph    
Visibility 10 miles    
Events      
Averages and records for this station are not official NWS values.
T = Trace of Precipitation, MM = Missing Value Source: NWS Daily Summary

Daily Weather History Graph

Daily Weather History Graph

Search for Another Location

Airport or City:

Trip Planner

Search our weather history database for the weather conditions in past years. The results will help you decide how hot, cold, wet, or windy it might be!

Date:

Astronomy

Oct. 04, 2012 Rise Set
Actual Time 7:55 AM CDT 7:30 PM CDT
Civil Twilight 7:27 AM CDT 7:58 PM CDT
Nautical Twilight 6:55 AM CDT 8:30 PM CDT
Astronomical Twilight 6:23 AM CDT 9:02 PM CDT
Moon 10:05 PM CDT (10/4) 12:16 PM CDT (10/4)
Length of Visible Light 12h 30m
Length of Day
11h 35m
Waning Gibbous, 82% of the Moon is Illuminated
Oct 4
Waning Gibbous
Oct 8
Last Quarter
Oct 15
New
Oct 21
First Quarter
Oct 29
Full

Hourly Weather History & Observations

Time (CDT) Temp. Windchill Dew Point Humidity Pressure Visibility Wind Dir Wind Speed Gust Speed Precip Events Conditions
12:15 AM 35.1 °F 23.8 °F 27.1 °F 73% 30.31 in 10.0 mi NNW 20.7 mph 28.8 mph N/A   Clear
12:35 AM 34.7 °F 25.1 °F 27.1 °F 74% 30.31 in 10.0 mi NNW 15.0 mph 24.2 mph N/A   Clear
12:55 AM 34.0 °F 24.6 °F 27.3 °F 77% 30.31 in 10.0 mi NNW 13.8 mph 21.9 mph N/A   Clear
1:15 AM 33.8 °F 25.3 °F 27.1 °F 77% 30.32 in 10.0 mi NNW 11.5 mph - N/A   Clear
1:35 AM 33.8 °F 25.8 °F 27.0 °F 76% 30.32 in 10.0 mi NNW 10.4 mph - N/A   Clear
1:55 AM 33.3 °F 24.1 °F 26.6 °F 77% 30.31 in 10.0 mi NW 12.7 mph - N/A   Clear
2:15 AM 33.3 °F 25.1 °F 26.6 °F 77% 30.31 in 10.0 mi NW 10.4 mph - N/A   Clear
2:35 AM 33.3 °F 25.7 °F 26.6 °F 77% 30.32 in 10.0 mi NW 9.2 mph - N/A   Clear
2:55 AM 33.1 °F 26.9 °F 26.4 °F 77% 30.32 in 10.0 mi NNW 6.9 mph - N/A   Clear
3:15 AM 33.1 °F 26.1 °F 26.2 °F 76% 30.32 in 10.0 mi NW 8.1 mph - N/A   Clear
3:35 AM 32.9 °F 24.7 °F 26.2 °F 76% 30.32 in 10.0 mi NW 10.4 mph - N/A   Clear
3:55 AM 32.4 °F 24.0 °F 26.6 °F 79% 30.32 in 10.0 mi NW 10.4 mph - N/A   Clear
4:15 AM 30.7 °F 27.3 °F 25.9 °F 82% 30.33 in 10.0 mi WNW 3.5 mph - N/A   Scattered Clouds
4:35 AM 30.4 °F 26.9 °F 25.3 °F 82% 30.34 in 10.0 mi WNW 3.5 mph - N/A   Mostly Cloudy
4:55 AM 29.1 °F 20.6 °F 25.3 °F 86% 30.33 in 10.0 mi NW 9.2 mph - N/A   Scattered Clouds
5:15 AM 30.2 °F 24.3 °F 25.5 °F 83% 30.33 in 10.0 mi NW 5.8 mph - N/A   Clear
5:35 AM 30.9 °F 22.8 °F 25.7 °F 81% 30.33 in 10.0 mi NW 9.2 mph - N/A   Clear
5:55 AM 30.2 °F 24.3 °F 25.3 °F 82% 30.34 in 10.0 mi NW 5.8 mph - N/A   Clear
6:15 AM 28.8 °F 23.7 °F 24.8 °F 85% 30.34 in 10.0 mi NNW 4.6 mph - N/A   Scattered Clouds
6:35 AM 28.8 °F 20.2 °F 24.6 °F 84% 30.34 in 10.0 mi NW 9.2 mph - N/A   Scattered Clouds
6:55 AM 27.5 °F 20.2 °F 23.7 °F 86% 30.34 in 10.0 mi WNW 6.9 mph - N/A   Scattered Clouds
7:15 AM 26.2 °F 16.4 °F 23.2 °F 88% 30.34 in 10.0 mi WNW 10.4 mph - N/A   Clear
7:35 AM 26.2 °F 17.1 °F 23.5 °F 90% 30.34 in 10.0 mi WNW 9.2 mph - N/A   Clear
7:55 AM 26.2 °F 18.6 °F 23.5 °F 90% 30.34 in 10.0 mi WNW 6.9 mph - N/A   Clear
8:15 AM 26.2 °F 17.1 °F 23.9 °F 91% 30.34 in 10.0 mi WNW 9.2 mph - N/A   Clear
8:35 AM 28.4 °F 20.4 °F 24.8 °F 86% 30.34 in 10.0 mi NW 8.1 mph - N/A   Clear
8:55 AM 30.7 °F 21.4 °F 25.3 °F 80% 30.34 in 10.0 mi NW 11.5 mph - N/A   Clear
9:15 AM 32.2 °F 23.8 °F 26.2 °F 79% 30.34 in 10.0 mi NNW 10.4 mph - N/A   Clear
9:35 AM 34.5 °F 24.1 °F 26.2 °F 72% 30.34 in 10.0 mi North 17.3 mph 20.7 mph N/A   Clear
9:55 AM 35.1 °F 24.5 °F 25.3 °F 68% 30.34 in 10.0 mi North 18.4 mph 24.2 mph N/A   Clear
10:15 AM 36.1 °F 26.9 °F 25.2 °F 64% 30.34 in 10.0 mi North 15.0 mph - N/A   Clear
10:35 AM 37.2 °F 28.7 °F 24.4 °F 60% 30.34 in 10.0 mi North 13.8 mph - N/A   Clear
10:55 AM 37.8 °F 29.4 °F 24.3 °F 58% 30.35 in 10.0 mi North 13.8 mph 19.6 mph N/A   Clear
11:15 AM 38.3 °F 30.9 °F 23.5 °F 55% 30.35 in 10.0 mi North 11.5 mph - N/A   Clear
11:35 AM 39.0 °F 31.4 °F 23.2 °F 53% 30.34 in 10.0 mi North 12.7 mph 16.1 mph N/A   Clear
11:55 AM 40.3 °F 33.4 °F 22.8 °F 50% 30.34 in 10.0 mi NNW 11.5 mph 18.4 mph N/A   Clear
12:15 PM 41.7 °F 35.6 °F 22.5 °F 46% 30.33 in 10.0 mi NNW 10.4 mph - N/A   Clear
12:35 PM 42.6 °F 36.8 °F 21.7 °F 44% 30.32 in 10.0 mi North 10.4 mph 19.6 mph N/A   Clear
12:55 PM 43.2 °F 39.0 °F 21.0 °F 41% 30.32 in 10.0 mi North 6.9 mph 16.1 mph N/A   Clear
1:35 PM 42.8 °F 40.1 °F 19.9 °F 40% 30.32 in 10.0 mi NE 4.6 mph - N/A   Overcast
1:55 PM 42.8 °F 39.3 °F 20.3 °F 41% 30.31 in 10.0 mi ENE 5.8 mph - N/A   Overcast
2:15 PM 43.3 °F 40.7 °F 20.7 °F 40% 30.30 in 10.0 mi ESE 4.6 mph - N/A   Overcast
2:35 PM 43.9 °F 39.9 °F 20.7 °F 40% 30.30 in 10.0 mi East 6.9 mph - N/A   Overcast
2:55 PM 43.3 °F - 20.7 °F 40% 30.28 in 10.0 mi Calm Calm - N/A   Overcast
3:15 PM 44.1 °F 41.5 °F 20.5 °F 39% 30.28 in 10.0 mi ESE 4.6 mph - N/A   Overcast
3:35 PM 44.6 °F - 21.0 °F 39% 30.27 in 10.0 mi Calm Calm - N/A   Overcast
3:55 PM 45.0 °F 41.2 °F 20.3 °F 38% 30.27 in 10.0 mi ESE 6.9 mph - N/A   Overcast
4:15 PM 44.8 °F - 20.8 °F 39% 30.26 in 10.0 mi Calm Calm - N/A   Overcast
4:35 PM 46.2 °F 43.3 °F 21.0 °F 37% 30.26 in 10.0 mi South 5.8 mph - N/A   Scattered Clouds
4:55 PM 45.7 °F 43.4 °F 20.8 °F 37% 30.26 in 10.0 mi South 4.6 mph - N/A   Scattered Clouds
5:15 PM 44.6 °F - 21.0 °F 39% 30.25 in 10.0 mi Calm Calm - N/A   Scattered Clouds
5:55 PM 45.3 °F - 20.5 °F 37% 30.24 in 10.0 mi Calm Calm - N/A   Mostly Cloudy
6:15 PM 45.1 °F 43.7 °F 20.7 °F 38% 30.24 in 10.0 mi ESE 3.5 mph - N/A   Mostly Cloudy
6:35 PM 45.5 °F 43.2 °F 20.8 °F 38% 30.25 in 10.0 mi SSE 4.6 mph - N/A   Overcast
6:55 PM 45.0 °F - 20.8 °F 38% 30.25 in 10.0 mi Calm Calm - N/A   Mostly Cloudy
7:15 PM 44.6 °F 41.4 °F 20.8 °F 39% 30.25 in 10.0 mi ESE 5.8 mph - N/A   Mostly Cloudy
7:35 PM 41.9 °F 39.0 °F 20.3 °F 42% 30.25 in 10.0 mi ESE 4.6 mph - N/A   Mostly Cloudy
7:55 PM 37.8 °F 32.5 °F 19.4 °F 48% 30.25 in 10.0 mi East 6.9 mph - N/A   Scattered Clouds
8:15 PM 36.3 °F 31.6 °F 19.8 °F 51% 30.26 in 10.0 mi ESE 5.8 mph - N/A   Clear
8:35 PM 35.8 °F 31.9 °F 20.1 °F 53% 30.25 in 10.0 mi ESE 4.6 mph - N/A   Clear
8:55 PM 36.3 °F 30.8 °F 20.5 °F 53% 30.26 in 10.0 mi ESE 6.9 mph - N/A   Clear
9:15 PM 34.3 °F 29.2 °F 19.8 °F 55% 30.26 in 10.0 mi ESE 5.8 mph - N/A   Clear
9:35 PM 33.6 °F 28.4 °F 20.1 °F 58% 30.26 in 10.0 mi East 5.8 mph - N/A   Clear
9:55 PM 32.0 °F 25.6 °F 19.9 °F 61% 30.26 in 10.0 mi East 6.9 mph - N/A   Clear
10:15 PM 33.3 °F 27.9 °F 20.5 °F 59% 30.26 in 10.0 mi ESE 5.8 mph - N/A   Clear
10:35 PM 32.0 °F 26.4 °F 20.3 °F 62% 30.26 in 10.0 mi East 5.8 mph - N/A   Clear
10:55 PM 32.0 °F 25.6 °F 20.3 °F 62% 30.26 in 10.0 mi East 6.9 mph - N/A   Clear
11:15 PM 31.5 °F 24.2 °F 20.1 °F 63% 30.26 in 10.0 mi East 8.1 mph - N/A   Clear
11:35 PM 32.0 °F 24.2 °F 20.3 °F 62% 30.26 in 10.0 mi East 9.2 mph - N/A   Clear
11:55 PM 32.4 °F 24.0 °F 21.0 °F 63% 30.25 in 10.0 mi ESE 10.4 mph - N/A   Clear